Weather History for Caldwell, ID

Change the Weather History Date:

Tuesday, February 19, 2013

  Actual Average (KBOI) Record (KBOI)
Temperature  
Mean Temperature 34 °F 38 °F  
Max Temperature 39 °F 46 °F 67 °F (1995)
Min Temperature 30 °F 29 °F -5 °F (1882)
Degree Days  
Heating Degree Days 30 27  
Month to date heating degree days 564  
Since 1 July heating degree days 3925  
Cooling Degree Days 0 0  
Month to date cooling degree days 0  
Year to date cooling degree days 0  
Moisture  
Dew Point 23 °F    
Average Humidity 62    
Maximum Humidity 81    
Minimum Humidity 45    
Precipitation  
Precipitation 0.04 in 0.03 in 0.76 in (1986)
Month to date precipitation 0.65  
Year to date precipitation 1.89  
Snow  
Snow 0.00 in 0.00 in 3.80 in (1910)
Month to date snowfall 2.1  
Since 1 July snowfall 16.9  
Snow Depth -    
Sea Level Pressure  
Sea Level Pressure 29.72 in    
Wind  
Wind Speed 13 mph (SW)    
Max Wind Speed 26 mph    
Max Gust Speed 34 mph    
Visibility 10 miles    
Events      
T = Trace of Precipitation, MM = Missing Value Source: NWS Daily Summary

Daily Weather History Graph

Daily Weather History Graph

Search for Another Location

Airport:

Trip Planner

Search our weather history database for the weather conditions in past years. The results will help you decide how hot, cold, wet, or windy it might be!

Date:

Astronomy

Feb. 19, 2013 Rise Set
Actual Time 7:38 AM MST 6:22 PM MST
Civil Twilight 7:09 AM MST 6:51 PM MST
Nautical Twilight 6:36 AM MST 7:25 PM MST
Astronomical Twilight 6:02 AM MST 7:58 PM MST
Moon 12:52 PM MST (2/19) 3:19 AM MST (2/19)
Length of Visible Light 11h 42m
Length of Day
10h 44m
Waxing Gibbous, 68% of the Moon is Illuminated
Feb 19
Waxing Gibbous
Feb 25
Full
Mar 4
Last Quarter
Mar 11
New
Mar 19
First Quarter

Hourly Weather History & Observations

Time (MST) Temp. Windchill Dew Point Humidity Pressure Visibility Wind Dir Wind Speed Gust Speed Precip Events Conditions
12:15 AM 37.4 °F 27.8 °F 17.6 °F 45% 29.75 in 10.0 mi South 17.3 mph 24.2 mph N/A   Scattered Clouds
12:35 AM 37.4 °F 27.5 °F 17.6 °F 45% 29.75 in 10.0 mi SSE 18.4 mph 23.0 mph N/A   Partly Cloudy
12:55 AM 37.4 °F 27.2 °F 17.6 °F 45% 29.75 in 10.0 mi SSE 19.6 mph 26.5 mph N/A   Partly Cloudy
1:15 AM 37.4 °F 27.8 °F 17.6 °F 45% 29.74 in 10.0 mi SSE 17.3 mph 24.2 mph N/A   Mostly Cloudy
1:35 AM 37.4 °F 27.5 °F 17.6 °F 45% 29.73 in 10.0 mi South 18.4 mph - N/A   Overcast
1:55 AM 37.4 °F 26.6 °F 17.6 °F 45% 29.73 in 10.0 mi South 21.9 mph 27.6 mph N/A   Overcast
2:15 AM 37.4 °F 27.2 °F 17.6 °F 45% 29.72 in 10.0 mi South 19.6 mph 25.3 mph N/A   Overcast
2:35 AM 37.4 °F 26.6 °F 17.6 °F 45% 29.71 in 10.0 mi South 21.9 mph 28.8 mph N/A   Overcast
2:55 AM 35.6 °F 24.5 °F 17.6 °F 48% 29.71 in 10.0 mi South 20.7 mph 26.5 mph N/A   Mostly Cloudy
3:15 AM 35.6 °F 24.8 °F 17.6 °F 48% 29.70 in 10.0 mi SSE 19.6 mph 28.8 mph N/A   Mostly Cloudy
3:35 AM 37.4 °F 25.6 °F 17.6 °F 45% 29.71 in 10.0 mi South 26.5 mph 34.5 mph N/A   Overcast
3:55 AM 37.4 °F 26.1 °F 17.6 °F 45% 29.71 in 10.0 mi South 24.2 mph 31.1 mph N/A   Overcast
4:15 AM 37.4 °F 27.5 °F 17.6 °F 45% 29.69 in 10.0 mi South 18.4 mph 25.3 mph N/A   Overcast
4:55 AM 37.4 °F 28.5 °F 17.6 °F 45% 29.69 in 10.0 mi South 15.0 mph - N/A   Overcast
5:15 AM 35.6 °F 28.0 °F 17.6 °F 48% 29.68 in 10.0 mi SSE 10.4 mph - N/A   Overcast
5:35 AM 35.6 °F 28.0 °F 17.6 °F 48% 29.68 in 10.0 mi SSE 10.4 mph - N/A   Overcast
5:55 AM 35.6 °F 27.5 °F 17.6 °F 48% 29.68 in 10.0 mi SE 11.5 mph - N/A   Overcast
6:15 AM 35.6 °F 27.1 °F 17.6 °F 48% 29.69 in 10.0 mi South 12.7 mph - N/A   Overcast
6:35 AM 35.6 °F 24.2 °F 17.6 °F 48% 29.68 in 10.0 mi South 21.9 mph 26.5 mph N/A   Overcast
6:55 AM 37.4 °F 27.2 °F 17.6 °F 45% 29.68 in 10.0 mi South 19.6 mph 27.6 mph N/A   Overcast
7:15 AM 37.4 °F 27.8 °F 17.6 °F 45% 29.69 in 10.0 mi South 17.3 mph 25.3 mph N/A   Mostly Cloudy
7:35 AM 37.4 °F 29.8 °F 17.6 °F 45% 29.69 in 10.0 mi South 11.5 mph - N/A   Mostly Cloudy
7:55 AM 37.4 °F 28.9 °F 17.6 °F 45% 29.69 in 10.0 mi South 13.8 mph - N/A   Overcast
8:35 AM 37.4 °F 33.8 °F 17.6 °F 45% 29.70 in 10.0 mi South 4.6 mph - N/A   Overcast
8:55 AM 37.4 °F 31.4 °F 17.6 °F 45% 29.70 in 10.0 mi South 8.1 mph - N/A   Overcast
9:15 AM 35.6 °F 29.2 °F 21.2 °F 56% 29.71 in 10.0 mi South 8.1 mph - N/A   Overcast
9:35 AM 33.8 °F 30.8 °F 24.8 °F 70% 29.71 in 10.0 mi SSE 3.5 mph - N/A   Overcast
9:55 AM 35.6 °F - 24.8 °F 65% 29.70 in 10.0 mi Calm Calm - N/A   Overcast
10:15 AM 37.4 °F 32.1 °F 21.2 °F 52% 29.70 in 10.0 mi SE 6.9 mph - N/A   Overcast
10:35 AM 37.4 °F 31.4 °F 21.2 °F 52% 29.69 in 10.0 mi SE 8.1 mph - N/A   Mostly Cloudy
11:15 AM 39.2 °F 35.0 °F 23.0 °F 52% 29.69 in 10.0 mi SSE 5.8 mph - N/A   Overcast
11:35 AM 39.2 °F 34.2 °F 23.0 °F 52% 29.70 in 10.0 mi WSW 6.9 mph - N/A   Overcast
11:55 AM 37.4 °F 31.4 °F 26.6 °F 65% 29.71 in 10.0 mi West 8.1 mph - N/A   Overcast
12:15 PM 35.6 °F - 28.4 °F 75% 29.71 in 10.0 mi Calm Calm - N/A   Overcast
12:35 PM 35.6 °F 27.5 °F 28.4 °F 75% 29.71 in 10.0 mi West 11.5 mph - N/A   Overcast
12:55 PM 35.6 °F 31.7 °F 28.4 °F 75% 29.71 in 6.0 mi West 4.6 mph - 0.02 in   Overcast
1:15 PM 35.6 °F - 28.4 °F 75% 29.71 in 10.0 mi Calm Calm - 0.02 in   Overcast
1:35 PM 35.6 °F - 30.2 °F 81% 29.70 in 10.0 mi Calm Calm - 0.02 in   Overcast
1:55 PM 37.4 °F 34.9 °F 30.2 °F 75% 29.70 in 10.0 mi NNW 3.5 mph - 0.02 in   Overcast
2:35 PM 37.4 °F 34.9 °F 30.2 °F 75% 29.70 in 10.0 mi NE 3.5 mph - N/A   Overcast
2:55 PM 37.4 °F 32.8 °F 30.2 °F 75% 29.71 in 10.0 mi NE 5.8 mph - N/A   Overcast
3:15 PM 37.4 °F 30.8 °F 32.0 °F 81% 29.71 in 10.0 mi North 9.2 mph - N/A   Overcast
3:35 PM 37.4 °F 32.1 °F 30.2 °F 75% 29.70 in 10.0 mi NNE 6.9 mph - N/A   Overcast
3:55 PM 37.4 °F 32.8 °F 30.2 °F 75% 29.71 in 10.0 mi North 5.8 mph - N/A   Overcast
4:15 PM 39.2 °F 35.9 °F 30.2 °F 70% 29.71 in 10.0 mi North 4.6 mph - N/A   Overcast
5:35 PM 37.4 °F 31.4 °F 30.2 °F 75% 29.71 in 10.0 mi NNW 8.1 mph - N/A   Mostly Cloudy
5:55 PM 37.4 °F 32.1 °F 28.4 °F 70% 29.72 in 10.0 mi NNW 6.9 mph - N/A   Partly Cloudy
6:15 PM 37.4 °F 32.8 °F 28.4 °F 70% 29.72 in 10.0 mi NNW 5.8 mph - N/A   Clear
6:35 PM 35.6 °F 30.7 °F 28.4 °F 75% 29.72 in 10.0 mi NW 5.8 mph - N/A   Clear
6:55 PM 37.4 °F 32.8 °F 26.6 °F 65% 29.72 in 10.0 mi NW 5.8 mph - N/A   Clear
7:15 PM 33.8 °F 27.7 °F 26.6 °F 75% 29.73 in 10.0 mi NW 6.9 mph - N/A   Clear
7:35 PM 33.8 °F 28.6 °F 26.6 °F 75% 29.74 in 10.0 mi WNW 5.8 mph - N/A   Clear
7:55 PM 33.8 °F 28.6 °F 26.6 °F 75% 29.74 in 10.0 mi WNW 5.8 mph - N/A   Clear
8:15 PM 33.8 °F 27.7 °F 26.6 °F 75% 29.74 in 10.0 mi WNW 6.9 mph - N/A   Clear
8:35 PM 33.8 °F 27.0 °F 26.6 °F 75% 29.74 in 10.0 mi WNW 8.1 mph - N/A   Clear
8:55 PM 33.8 °F 27.0 °F 26.6 °F 75% 29.75 in 10.0 mi WNW 8.1 mph - N/A   Clear
9:15 PM 33.8 °F 27.7 °F 26.6 °F 75% 29.75 in 10.0 mi WNW 6.9 mph - N/A   Clear
9:35 PM 32.0 °F 25.6 °F 26.6 °F 80% 29.76 in 10.0 mi WNW 6.9 mph - N/A   Clear
9:55 PM 32.0 °F 25.6 °F 26.6 °F 80% 29.76 in 10.0 mi WNW 6.9 mph - N/A   Clear
10:15 PM 32.0 °F 24.2 °F 26.6 °F 80% 29.76 in 10.0 mi WNW 9.2 mph - N/A   Clear
10:35 PM 32.0 °F 24.2 °F 26.6 °F 80% 29.77 in 10.0 mi WNW 9.2 mph - N/A   Clear
10:55 PM 30.2 °F 21.9 °F 24.8 °F 80% 29.78 in 10.0 mi WNW 9.2 mph - N/A   Clear
11:15 PM 30.2 °F 21.9 °F 24.8 °F 80% 29.78 in 10.0 mi WNW 9.2 mph - N/A   Clear
11:35 PM 30.2 °F 21.3 °F 24.8 °F 80% 29.78 in 10.0 mi WNW 10.4 mph - N/A   Clear
11:55 PM 30.2 °F 21.3 °F 24.8 °F 80% 29.78 in 10.0 mi WNW 10.4 mph - N/A   Clear